カタログに戻る

STARLINK-3387

運用中通信VLEO
NORAD 51125·PAYLOAD·🇺🇸 United States

打ち上げ Jan 19, 2022 から Cape Canaveral Space Force Station

Loading…

次のパス (今後24時間)

TLE

最新Source: CelesTrak SupGP

元期: Sep 15, 2026, 01:10 UTC

1 51125C 22005X   26258.04909722 -.00011586  00000+0 -33157-3 0  2581
2 51125  53.1576 155.5151 0001179  76.4514 348.6338 15.35395520    15

AllMySatでSTARLINK-3387をリアルタイム追跡

Download on the App Store